Belen, NM

2:58 PM MST on February 23, 2017 (GMT -0700)
Belen

Weather History for KE80 - September, 2013

Change the Weather History Date:

Wednesday, September 11, 2013

  Actual Average (KABQ) Record (KABQ)
Temperature  
Mean Temperature 71 °F -  
Max Temperature 80 °F 84 °F 94 °F (1979)
Min Temperature 62 °F 58 °F 41 °F (1894)
Cooling Degree Days 6    
Growing Degree Days 21 (Base 50)    
Moisture  
Dew Point 60 °F    
Average Humidity 74    
Maximum Humidity 98    
Minimum Humidity 35    
Precipitation  
Precipitation 0.01 in - - ()
Sea Level Pressure  
Sea Level Pressure 30.16 in    
Wind  
Wind Speed 2 mph (SE)    
Max Wind Speed 16 mph    
Max Gust Speed 20 mph    
Visibility 10 miles    
Events Thunderstorm    
Averages and records for this station are not official NWS values.
T = Trace of Precipitation, MM = Missing Value Source: NWS Daily Summary

Daily Weather History Graph

Daily Weather History Graph

Search for Another Location

Airport or City:

Trip Planner

Search our weather history database for the weather conditions in past years. The results will help you decide how hot, cold, wet, or windy it might be!

Date:

Astronomy

Sep. 11, 2013 Rise Set
Actual Time 6:47 AM MDT 7:19 PM MDT
Civil Twilight 6:22 AM MDT 7:44 PM MDT
Nautical Twilight 5:52 AM MDT 8:14 PM MDT
Astronomical Twilight 5:22 AM MDT 8:44 PM MDT
Moon 1:03 PM MDT (9/11) 11:34 PM MDT (9/11)
Length of Visible Light 13h 22m
Length of Day
12h 31m
Waxing Crescent, 39% of the Moon is Illuminated
Sep 11
Waxing Crescent
Sep 12
First Quarter
Sep 19
Full
Sep 26
Last Quarter
Oct 4
New

Hourly Weather History & Observations

Time (MDT) Temp. Heat Index Dew Point Humidity Pressure Visibility Wind Dir Wind Speed Gust Speed Precip Events Conditions
12:15 AM 63.9 °F - 62.8 °F 96% 30.16 in 10.0 mi Calm Calm - N/A   Overcast
12:35 AM 64.0 °F - 63.0 °F 96% 30.16 in 10.0 mi ENE 3.5 mph - N/A   Overcast
12:55 AM 63.7 °F - 62.6 °F 96% 30.16 in 10.0 mi Calm Calm - N/A   Overcast
1:15 AM 63.7 °F - 62.6 °F 96% 30.16 in 10.0 mi Calm Calm - N/A   Overcast
1:35 AM 63.9 °F - 62.6 °F 96% 30.16 in 10.0 mi Calm Calm - N/A   Overcast
1:55 AM 64.0 °F - 63.0 °F 96% 30.16 in 10.0 mi Calm Calm - N/A   Overcast
2:15 AM 64.4 °F - 62.6 °F 94% 30.16 in 10.0 mi Calm Calm - N/A   Overcast
2:35 AM 64.4 °F - 62.6 °F 94% 30.16 in 10.0 mi ESE 3.5 mph - N/A   Overcast
2:55 AM 64.4 °F - 62.6 °F 94% 30.15 in 10.0 mi Calm Calm - N/A   Overcast
3:15 AM 64.4 °F - 62.4 °F 93% 30.16 in 10.0 mi East 3.5 mph - N/A   Overcast
3:35 AM 64.4 °F - 62.4 °F 93% 30.15 in 10.0 mi Calm Calm - N/A   Overcast
3:55 AM 64.4 °F - 62.6 °F 94% 30.15 in 10.0 mi Calm Calm - N/A   Overcast
4:15 AM 64.4 °F - 62.6 °F 94% 30.15 in 10.0 mi Calm Calm - N/A   Overcast
4:35 AM 64.4 °F - 62.6 °F 94% 30.15 in 10.0 mi Calm Calm - N/A   Overcast
4:55 AM 63.1 °F - 62.1 °F 96% 30.15 in 10.0 mi Calm Calm - N/A   Scattered Clouds
5:15 AM 62.8 °F - 62.1 °F 97% 30.16 in 10.0 mi NNE 3.5 mph - N/A   Mostly Cloudy
5:35 AM 63.1 °F - 62.6 °F 98% 30.16 in 10.0 mi Calm Calm - N/A   Overcast
5:55 AM 63.5 °F - 62.6 °F 97% 30.16 in 10.0 mi Calm Calm - N/A   Overcast
6:15 AM 63.5 °F - 62.6 °F 97% 30.16 in 10.0 mi Calm Calm - N/A   Overcast
6:35 AM 63.9 °F - 62.8 °F 96% 30.17 in 10.0 mi Calm Calm - N/A   Overcast
6:55 AM 63.9 °F - 62.6 °F 96% 30.18 in 10.0 mi Calm Calm - N/A   Overcast
7:15 AM 63.9 °F - 62.6 °F 96% 30.18 in 10.0 mi Calm Calm - N/A   Overcast
7:35 AM 64.4 °F - 62.4 °F 93% 30.18 in 10.0 mi Calm Calm - N/A   Overcast
7:55 AM 64.6 °F - 62.6 °F 93% 30.19 in 10.0 mi Calm Calm - N/A   Overcast
8:15 AM 64.4 °F - 62.8 °F 94% 30.19 in 10.0 mi NNW 3.5 mph - N/A   Overcast
8:35 AM 65.1 °F - 62.8 °F 92% 30.20 in 10.0 mi North 3.5 mph - N/A   Overcast
8:55 AM 65.5 °F - 63.0 °F 92% 30.20 in 10.0 mi North 3.5 mph - N/A   Mostly Cloudy
9:15 AM 66.0 °F - 63.1 °F 90% 30.21 in 10.0 mi NNW 4.6 mph - N/A   Overcast
9:35 AM 66.2 °F - 62.8 °F 89% 30.21 in 10.0 mi NNW 4.6 mph - N/A   Overcast
9:55 AM 67.6 °F - 62.4 °F 83% 30.21 in 10.0 mi North 3.5 mph - N/A   Mostly Cloudy
10:15 AM 67.6 °F - 61.3 °F 80% 30.21 in 10.0 mi NNW 4.6 mph - N/A   Mostly Cloudy
10:35 AM 68.0 °F - 60.6 °F 77% 30.22 in 10.0 mi NW 3.5 mph - N/A   Overcast
10:55 AM 70.5 °F - 60.8 °F 71% 30.21 in 10.0 mi Calm Calm - N/A   Mostly Cloudy
11:15 AM 70.7 °F - 60.4 °F 70% 30.21 in 10.0 mi Calm Calm - N/A   Scattered Clouds
11:35 AM 72.5 °F - 61.0 °F 67% 30.21 in 10.0 mi Calm Calm - N/A   Scattered Clouds
11:55 AM 71.4 °F - 60.1 °F 67% 30.21 in 10.0 mi Calm Calm - N/A   Scattered Clouds
12:15 PM 73.4 °F - 61.5 °F 66% 30.20 in 10.0 mi Calm Calm - N/A   Mostly Cloudy
12:35 PM 72.1 °F - 59.7 °F 65% 30.19 in 10.0 mi Calm Calm - N/A   Overcast
12:55 PM 73.6 °F - 59.5 °F 61% 30.19 in 10.0 mi Calm Calm - N/A   Scattered Clouds
1:15 PM 75.2 °F - 58.8 °F 57% 30.18 in 10.0 mi ESE 3.5 mph - N/A   Clear
1:35 PM 75.2 °F - 58.3 °F 56% 30.17 in 10.0 mi Calm Calm - 0.01 in   Clear
1:55 PM 76.8 °F - 58.8 °F 54% 30.16 in 10.0 mi Calm Calm - 0.01 in   Clear
2:15 PM 77.9 °F - 58.6 °F 51% 30.16 in 10.0 mi SE 3.5 mph - N/A   Mostly Cloudy
2:35 PM 77.7 °F - 58.6 °F 52% 30.15 in 10.0 mi NE 4.6 mph - N/A   Mostly Cloudy
2:55 PM 78.1 °F - 57.6 °F 49% 30.14 in 10.0 mi Calm Calm - N/A   Mostly Cloudy
3:15 PM 79.5 °F - 57.4 °F 47% 30.14 in 10.0 mi Calm Calm - N/A   Overcast
3:35 PM 79.0 °F - 56.5 °F 46% 30.14 in 10.0 mi NW 3.5 mph - N/A   Scattered Clouds
3:55 PM 78.1 °F - 54.9 °F 45% 30.13 in 10.0 mi NNE 3.5 mph - N/A   Scattered Clouds
4:15 PM 80.2 °F 80.0 °F 53.2 °F 39% 30.12 in 10.0 mi ESE 3.5 mph - N/A   Clear
4:35 PM 80.2 °F - 51.4 °F 37% 30.12 in 10.0 mi Calm Calm - N/A   Clear
4:55 PM 80.8 °F - 50.7 °F 35% 30.12 in 10.0 mi SE 5.8 mph - N/A   Clear
5:15 PM 80.8 °F - 50.7 °F 35% 30.12 in 10.0 mi East 5.8 mph - N/A   Clear
5:35 PM 78.8 °F - 51.3 °F 38% 30.12 in 10.0 mi Calm Calm - N/A   Clear
5:55 PM 78.8 °F - 50.2 °F 37% 30.12 in 10.0 mi Calm Calm - N/A Thunderstorm Clear
6:15 PM 79.5 °F - 50.9 °F 37% 30.11 in 10.0 mi South 3.5 mph - N/A   Clear
6:35 PM 78.8 °F - 51.4 °F 38% 30.11 in 10.0 mi Calm Calm - N/A   Clear
6:55 PM 77.5 °F - 54.7 °F 45% 30.12 in 10.0 mi South 4.6 mph - N/A   Clear
7:15 PM 74.8 °F - 59.4 °F 58% 30.12 in 10.0 mi SSW 3.5 mph - N/A   Clear
7:35 PM 73.8 °F - 58.5 °F 59% 30.12 in 10.0 mi SSW 3.5 mph - N/A   Clear
7:55 PM 71.4 °F - 61.9 °F 72% 30.14 in 10.0 mi South 8.1 mph - N/A   Clear
8:15 PM 71.8 °F - 61.7 °F 70% 30.15 in 10.0 mi SSE 9.2 mph - N/A   Clear
8:35 PM 70.9 °F - 62.2 °F 74% 30.16 in 10.0 mi SSE 10.4 mph - N/A   Clear
8:55 PM 70.7 °F - 60.8 °F 71% 30.17 in 10.0 mi SSE 11.5 mph - N/A   Clear
9:15 PM 70.2 °F - 59.9 °F 70% 30.18 in 10.0 mi SSE 12.7 mph 18.4 mph N/A   Clear
9:35 PM 69.4 °F - 59.5 °F 71% 30.18 in 10.0 mi SSE 16.1 mph - N/A   Clear
9:55 PM 69.3 °F - 59.5 °F 71% 30.18 in 10.0 mi SSE 12.7 mph 19.6 mph N/A   Clear
10:15 PM 68.4 °F - 60.1 °F 75% 30.18 in 10.0 mi SSE 11.5 mph 16.1 mph N/A   Clear
10:35 PM 68.2 °F - 59.9 °F 75% 30.18 in 10.0 mi SSE 12.7 mph 19.6 mph N/A   Clear
10:55 PM 67.6 °F - 60.1 °F 77% 30.18 in 10.0 mi SSE 13.8 mph - N/A   Clear
11:15 PM 67.5 °F - 59.9 °F 77% 30.18 in 10.0 mi SSE 13.8 mph - N/A   Scattered Clouds
11:35 PM 66.7 °F - 60.1 °F 79% 30.18 in 10.0 mi South 11.5 mph - N/A   Scattered Clouds
11:55 PM 66.4 °F - 60.3 °F 81% 30.18 in 10.0 mi South 12.7 mph 17.3 mph N/A   Clear